QPF
0.00 0.00 0.00 0.00 0.00 0.00 0.00 0.00 0.00 0.00 0.00 0.00 0.00 0.00 0.00 0.00 0.00 0.00 0.00 0.01 0.02 0.00 0.00 0.00 0.00 0.00 0.00 0.00 0.00 0.00 0.01 0.02 0.00 0.00 0.00 0.00 0.00 0.00 0.00 0.00 0.00 0.00 0.00
0.00 0.00 0.00 0.00 0.00 0.00 0.00 0.00 0.00 0.00 0.00 0.00 0.00 0.00 0.00 0.00 0.00 0.00 0.00 0.00 0.00 0.00 0.00 0.00 0.00 0.00 0.00 0.00 0.00 0.00 0.11 0.15 0.02 0.00 0.00 0.00 0.00 0.00 0.00 0.00 0.00 0.00 0.00
0.00 0.00 0.00 0.00 0.00 0.00 0.00 0.00 0.00 0.00 0.00 0.00 0.00 0.00 0.00 0.00 0.00 0.00 0.00 0.00 0.00 0.00 0.00 0.00 0.00 0.00 0.00 0.00 0.00 0.00 0.05 0.04 0.00 0.00 0.00 0.00 0.00 0.00 0.00 0.00 0.00 0.00 0.00
0.00 0.00 0.00 0.00 0.00 0.00 0.00 0.00 0.00 0.00 0.00 0.00 0.00 0.00 0.00 0.00 0.01 0.00 0.00 0.00 0.00 0.00 0.00 0.00 0.00 0.00 0.00 0.00 0.00 0.00 0.03 0.01 0.00 0.00 0.00 0.00 0.00 0.00 0.00 0.00 0.00 0.00 0.00
0.00 0.00 0.00 0.00 0.00 0.00 0.00 0.00 0.01 0.02 0.00 0.00 0.00 0.00 0.00 0.00 0.00 0.00 0.00 0.00 0.00 0.00 0.00 0.00 0.00 0.00 0.00 0.00 0.00 0.02 0.00 0.00 0.00 0.00 0.00 0.00 0.00 0.00 0.00 0.00 0.00 0.00 0.00
0.00 0.00 0.00 0.00 0.00 0.00 0.00 0.00 0.00 0.00 0.00 0.00 0.00 0.00 0.00 0.00 0.00 0.00 0.00 0.00 0.00 0.00 0.00 0.00 0.00 0.00 0.00 0.00 0.00 0.02 0.00 0.00 0.00 0.00 0.00 0.00 0.00 0.00 0.00 0.00 0.00 0.00 0.00
0.00 0.00 0.00 0.00 0.00 0.00 0.00 0.00 0.00 0.00 0.00 0.00 0.00 0.00 0.00 0.00 0.00 0.00 0.00 0.00 0.00 0.00 0.00 0.00 0.00 0.00 0.00 0.00 0.00 0.01 0.03 0.00 0.00 0.00 0.00 0.00 0.00 0.00 0.00 0.00 0.00 0.00 0.00
0.00 0.00 0.00 0.00 0.00 0.00 0.00 0.00 0.00 0.00 0.00 0.00 0.00 0.00 0.00 0.00 0.00 0.00 0.00 0.00 0.00 0.00 0.00 0.00 0.00 0.00 0.00 0.00 0.00 0.02 0.00 0.00 0.00 0.00 0.00 0.00 0.00 0.00 0.00 0.00 0.00 0.01 0.00
0.00 0.00 0.00 0.00 0.00 0.00 0.00 0.00 0.00 0.00 0.00 0.00 0.00 0.00 0.00 0.00 0.00 0.00 0.00 0.00 0.00 0.00 0.00 0.00 0.00 0.00 0.00 0.02 0.08 0.05 0.00 0.00 0.00 0.00 0.00 0.00 0.00 0.00 0.00 0.00 0.00 0.00 0.00
0.00 0.00 0.00 0.00 0.00 0.00 0.00 0.00 0.00 0.00 0.00 0.00 0.00 0.00 0.00 0.00 0.00 0.00 0.00 0.00 0.00 0.00 0.00 0.00 0.00 0.01 0.00 0.06 0.11 0.05 0.00 0.00 0.00 0.00 0.00 0.00 0.00 0.00 0.00 0.00 0.00 0.00 0.00
0.00 0.00 0.00 0.00 0.00 0.00 0.00 0.00 0.00 0.00 0.00 0.00 0.00 0.00 0.00 0.00 0.00 0.00 0.00 0.00 0.00 0.00 0.00 0.00 0.01 0.02 0.00 0.05 0.05 0.01 0.00 0.00 0.00 0.00 0.00 0.00 0.00 0.00 0.00 0.00 0.00 0.00 0.00
0.00 0.00 0.00 0.00 0.00 0.00 0.00 0.00 0.00 0.00 0.00 0.00 0.03 0.11 0.05 0.00 0.00 0.00 0.00 0.00 0.00 0.00 0.00 0.00 0.01 0.00 0.01 0.01 0.00 0.00 0.00 0.00 0.00 0.00 0.00 0.00 0.00 0.00 0.00 0.00 0.00 0.00 0.00
0.00 0.00 0.00 0.00 0.00 0.00 0.00 0.00 0.00 0.00 0.00 0.00 0.01 0.02 0.00 0.00 0.00 0.00 0.00 0.00 0.00 0.00 0.02 0.01 0.00 0.00 0.00 0.00 0.00 0.00 0.00 0.00 0.00 0.00 0.00 0.00 0.00 0.00 0.00 0.00 0.00 0.00 0.00
0.00 0.00 0.00 0.00 0.00 0.00 0.00 0.00 0.00 0.00 0.01 0.02 0.00 0.00 0.00 0.00 0.00 0.00 0.00 0.00 0.00 0.02 0.02 0.05 0.00 0.00 0.00 0.00 0.00 0.00 0.00 0.00 0.00 0.00 0.00 0.00 0.00 0.00 0.00 0.00 0.00 0.00 0.00
0.00 0.00 0.00 0.00 0.00 0.00 0.00 0.00 0.00 0.00 0.00 0.00 0.00 0.00 0.00 0.00 0.00 0.00 0.00 0.00 0.00 0.02 0.02 0.03 0.00 0.00 0.00 0.00 0.00 0.00 0.00 0.00 0.00 0.00 0.00 0.00 0.00 0.00 0.00 0.00 0.00 0.00 0.00
0.00 0.00 0.00 0.00 0.00 0.00 0.00 0.00 0.00 0.00 0.00 0.00 0.00 0.00 0.00 0.00 0.00 0.00 0.00 0.00 0.00 0.02 0.04 0.02 0.00 0.00 0.00 0.00 0.00 0.00 0.00 0.00 0.00 0.00 0.00 0.00 0.00 0.00 0.00 0.00 0.00 0.00 0.00
0.00 0.00 0.00 0.00 0.00 0.00 0.00 0.00 0.00 0.00 0.00 0.00 0.00 0.00 0.00 0.00 0.00 0.00 0.00 0.00 0.00 0.02 0.07 0.03 0.00 0.00 0.00 0.00 0.00 0.00 0.00 0.00 0.00 0.00 0.00 0.00 0.00 0.00 0.00 0.00 0.00 0.00 0.00
0.00 0.00 0.00 0.00 0.00 0.00 0.00 0.00 0.00 0.00 0.00 0.00 0.00 0.00 0.00 0.00 0.00 0.00 0.00 0.00 0.01 0.02 0.00 0.00 0.00 0.00 0.00 0.00 0.00 0.00 0.00 0.00 0.00 0.00 0.00 0.00 0.00 0.00 0.00 0.00 0.00 0.00 0.00
0.00 0.00 0.00 0.00 0.00 0.00 0.00 0.00 0.00 0.00 0.00 0.00 0.00 0.00 0.00 0.00 0.00 0.00 0.00 0.00 0.02 0.01 0.00 0.00 0.00 0.00 0.00 0.00 0.00 0.00 0.00 0.00 0.00 0.00 0.00 0.00 0.00 0.00 0.00 0.00 0.00 0.00 0.00
0.00 0.00 0.00 0.00 0.00 0.00 0.00 0.00 0.00 0.00 0.00 0.00 0.00 0.00 0.00 0.00 0.00 0.00 0.00 0.00 0.00 0.00 0.00 0.00 0.00 0.00 0.00 0.00 0.00 0.00 0.00 0.00 0.00 0.00 0.00 0.00 0.00 0.00 0.00 0.00 0.00 0.00 0.00
0.00 0.00 0.00 0.00 0.00 0.00 0.00 0.00 0.00 0.00 0.00 0.00 0.00 0.00 0.00 0.00 0.00 0.00 0.00 0.00 0.00 0.00 0.00 0.00 0.00 0.00 0.00 0.00 0.00 0.00 0.00 0.00 0.00 0.00 0.00 0.00 0.00 0.00 0.00 0.00 0.00 0.00 0.00
0.00 0.00 0.00 0.00 0.00 0.00 0.00 0.00 0.00 0.00 0.00 0.00 0.00 0.00 0.00 0.00 0.00 0.00 0.00 0.00 0.00 0.00 0.00 0.00 0.00 0.00 0.00 0.00 0.00 0.00 0.00 0.00 0.00 0.00 0.00 0.00 0.00 0.00 0.00 0.00 0.00 0.00 0.00
0.00 0.00 0.00 0.00 0.00 0.00 0.00 0.00 0.00 0.00 0.00 0.00 0.00 0.00 0.00 0.00 0.00 0.00 0.00 0.00 0.00 0.00 0.00 0.00 0.00 0.00 0.00 0.00 0.00 0.00 0.00 0.00 0.00 0.00 0.00 0.00 0.00 0.00 0.00 0.00 0.00 0.00 0.00
0.00 0.00 0.00 0.00 0.00 0.00 0.00 0.00 0.00 0.00 0.00 0.00 0.00 0.00 0.00 0.00 0.00 0.00 0.00 0.00 0.00 0.00 0.00 0.00 0.00 0.00 0.00 0.00 0.00 0.00 0.00 0.00 0.00 0.00 0.00 0.00 0.00 0.00 0.00 0.00 0.00 0.00 0.00
0.00 0.00 0.00 0.00 0.00 0.00 0.00 0.00 0.00 0.00 0.00 0.00 0.00 0.00 0.00 0.00 0.00 0.00 0.00 0.00 0.00 0.00 0.00 0.00 0.00 0.00 0.00 0.00 0.00 0.00 0.00 0.00 0.00 0.00 0.00 0.00 0.00 0.00 0.00 0.00 0.00 0.00 0.00
0.00 0.00 0.00 0.00 0.00 0.00 0.00 0.00 0.00 0.00 0.00 0.00 0.00 0.00 0.00 0.00 0.00 0.00 0.00 0.00 0.00 0.00 0.00 0.00 0.00 0.00 0.00 0.00 0.00 0.00 0.00 0.00 0.00 0.00 0.00 0.00 0.00 0.00 0.00 0.00 0.00 0.00 0.00
MSLP
1011.45 1012.03 1012.65 1013.41 1014.00 1014.82 1015.55 1016.20 1016.96 1017.27 1017.64 1018.36 1018.77 1019.03 1019.15 1019.26 1019.38 1019.33 1019.64 1019.82 1020.20 1019.96 1019.87 1019.83 1019.77 1019.62 1019.72 1019.75 1019.65 1019.51 1019.46 1019.40 1019.40 1019.36 1019.50 1019.64 1019.71 1019.62 1019.64 1019.62 1019.72 1019.89 1020.24
1011.04 1011.43 1012.15 1012.93 1013.50 1014.19 1014.97 1015.66 1016.29 1016.96 1017.40 1017.90 1018.30 1018.56 1018.79 1018.95 1019.04 1019.21 1019.52 1019.72 1019.82 1019.79 1019.74 1019.75 1019.82 1019.71 1019.85 1019.70 1019.70 1019.73 1019.69 1019.61 1019.52 1019.54 1019.89 1019.98 1020.08 1020.24 1020.35 1020.36 1020.47 1020.58 1020.69
1010.26 1010.85 1011.61 1012.23 1013.00 1013.63 1014.18 1015.09 1015.74 1016.27 1016.91 1017.54 1018.10 1018.46 1018.76 1018.84 1019.07 1019.16 1019.29 1019.30 1019.44 1019.53 1019.59 1019.56 1019.75 1019.73 1019.81 1019.73 1019.69 1019.70 1019.71 1019.64 1019.58 1019.63 1019.88 1020.16 1020.28 1020.68 1020.99 1021.00 1021.00 1021.16 1021.23
1009.72 1010.37 1010.93 1011.60 1012.03 1012.72 1013.46 1014.29 1015.41 1016.08 1016.53 1017.14 1017.66 1017.99 1018.20 1018.48 1018.56 1018.72 1018.84 1019.14 1019.18 1019.37 1019.37 1019.29 1019.47 1019.62 1019.74 1019.64 1019.52 1019.42 1019.64 1019.72 1019.82 1019.68 1019.75 1019.86 1019.93 1020.49 1021.03 1021.40 1021.57 1021.56 1021.55
1008.98 1009.46 1010.01 1010.43 1011.13 1012.44 1012.98 1013.76 1014.72 1015.67 1016.14 1016.65 1017.04 1017.50 1017.94 1018.01 1018.26 1018.59 1018.78 1018.97 1019.06 1019.12 1019.01 1018.98 1019.15 1019.41 1019.53 1019.34 1019.42 1019.29 1019.47 1019.64 1019.72 1019.68 1019.75 1019.96 1020.14 1020.30 1020.70 1021.32 1021.83 1021.84 1022.15
1008.43 1008.97 1009.57 1010.31 1011.04 1011.94 1012.62 1013.44 1014.32 1015.21 1015.85 1016.19 1016.68 1016.93 1017.48 1017.76 1018.10 1018.43 1018.73 1018.84 1018.86 1018.86 1018.76 1018.75 1018.90 1019.10 1019.12 1019.09 1019.13 1019.20 1019.34 1019.44 1019.67 1019.70 1019.80 1019.94 1020.02 1020.27 1020.51 1021.06 1021.70 1022.07 1022.50
1007.91 1008.54 1009.22 1009.93 1010.69 1011.50 1012.27 1013.02 1014.03 1014.84 1015.33 1015.82 1016.11 1016.62 1016.89 1017.36 1017.68 1018.04 1018.34 1018.64 1018.60 1018.53 1018.38 1018.32 1018.51 1018.64 1018.59 1018.67 1018.76 1019.01 1019.27 1019.37 1019.66 1019.72 1019.80 1019.92 1019.91 1019.92 1020.26 1020.59 1021.35 1021.90 1022.35
1007.44 1007.92 1008.47 1009.13 1009.95 1010.91 1011.73 1012.44 1013.44 1014.16 1014.79 1015.26 1015.50 1016.09 1016.48 1016.90 1017.23 1017.62 1018.03 1018.17 1018.14 1018.00 1017.80 1017.79 1017.70 1018.12 1018.25 1018.39 1018.50 1018.81 1019.06 1019.31 1019.60 1019.69 1019.78 1019.98 1020.06 1020.00 1019.96 1020.29 1020.76 1021.67 1022.19
1007.16 1007.60 1008.23 1009.02 1009.62 1010.35 1011.11 1011.83 1012.85 1013.52 1014.04 1014.62 1015.09 1015.61 1016.08 1016.50 1016.83 1017.26 1017.60 1017.66 1017.63 1017.54 1017.54 1017.49 1017.78 1017.76 1018.01 1018.17 1018.44 1018.86 1019.00 1019.44 1019.66 1019.81 1019.91 1020.11 1020.15 1020.00 1020.04 1020.16 1020.35 1020.74 1021.82
1006.69 1007.35 1007.94 1008.58 1009.17 1009.83 1010.69 1011.73 1012.48 1012.77 1013.35 1014.12 1014.66 1015.08 1015.54 1016.03 1016.37 1016.85 1017.18 1017.28 1017.29 1017.36 1017.40 1017.45 1017.58 1017.77 1017.90 1018.20 1018.74 1019.11 1019.34 1019.66 1019.86 1019.94 1020.02 1020.24 1020.22 1020.14 1020.21 1020.26 1020.48 1020.61 1021.29
1005.94 1006.57 1007.22 1008.07 1009.00 1009.76 1010.53 1011.47 1012.18 1012.58 1013.13 1013.69 1014.24 1014.77 1015.19 1015.67 1016.00 1016.42 1016.73 1016.88 1017.01 1017.20 1017.37 1017.37 1017.66 1017.96 1018.18 1018.56 1018.93 1019.34 1019.63 1019.98 1020.13 1020.20 1020.28 1020.49 1020.42 1020.59 1020.52 1020.42 1020.62 1020.93 1021.26
1005.37 1005.98 1006.68 1007.50 1008.30 1009.26 1010.26 1011.12 1011.76 1012.18 1012.50 1013.13 1013.83 1014.28 1014.74 1015.27 1015.67 1016.06 1016.31 1016.53 1016.73 1016.95 1017.19 1017.39 1017.85 1018.04 1018.36 1018.74 1019.12 1019.45 1019.89 1020.20 1020.43 1020.53 1020.62 1020.89 1020.69 1020.69 1020.63 1020.69 1020.90 1021.10 1021.35
1005.09 1005.56 1006.40 1007.49 1008.25 1008.78 1009.25 1010.22 1011.17 1011.76 1011.99 1012.64 1013.35 1013.92 1014.40 1014.83 1015.27 1015.67 1015.94 1016.23 1016.51 1016.78 1017.11 1017.22 1017.85 1018.04 1018.48 1018.85 1019.37 1019.64 1020.09 1020.30 1020.61 1020.71 1020.86 1020.93 1020.96 1020.94 1020.89 1020.95 1021.11 1021.35 1021.60
1004.79 1005.60 1006.37 1007.15 1007.66 1008.10 1008.67 1009.75 1010.24 1011.06 1011.48 1012.22 1012.79 1013.47 1014.03 1014.41 1014.88 1015.25 1015.57 1015.91 1016.29 1016.67 1016.96 1017.33 1017.73 1018.12 1018.47 1018.96 1019.36 1019.81 1020.14 1020.56 1020.89 1020.93 1021.01 1021.13 1021.10 1021.10 1021.03 1021.25 1021.45 1021.75 1022.35
1004.55 1005.16 1006.00 1006.58 1007.33 1008.06 1008.65 1009.43 1009.68 1010.61 1011.01 1011.92 1012.62 1013.16 1013.67 1014.10 1014.59 1014.95 1015.32 1015.80 1016.19 1016.56 1016.93 1017.42 1017.77 1018.09 1018.56 1019.06 1019.38 1019.87 1020.32 1020.72 1021.07 1021.22 1021.30 1021.28 1021.23 1021.17 1021.35 1021.58 1021.74 1022.07 1022.56
1004.07 1004.59 1005.39 1006.36 1006.98 1007.42 1007.99 1008.71 1009.33 1010.31 1010.92 1011.73 1012.40 1012.93 1013.42 1013.87 1014.30 1014.68 1015.21 1015.68 1016.08 1016.55 1017.13 1017.52 1017.91 1018.32 1018.67 1018.99 1019.36 1019.90 1020.56 1020.82 1021.21 1021.51 1021.48 1021.50 1021.27 1021.13 1021.32 1021.51 1022.02 1022.28 1022.64
1003.52 1003.87 1004.45 1005.10 1006.13 1006.65 1007.18 1007.89 1008.93 1009.78 1010.66 1011.36 1012.17 1012.62 1013.00 1013.53 1014.02 1014.43 1015.00 1015.50 1015.89 1016.37 1017.04 1017.55 1017.99 1018.31 1018.75 1018.84 1019.49 1020.10 1020.47 1020.87 1021.36 1021.55 1021.78 1021.63 1021.67 1021.75 1021.91 1021.95 1022.08 1022.02 1022.29
1002.36 1003.04 1003.90 1004.50 1005.64 1006.29 1006.83 1007.29 1008.34 1009.42 1010.43 1011.14 1011.77 1012.14 1012.55 1013.16 1013.78 1014.22 1014.77 1015.29 1015.78 1016.25 1016.81 1017.47 1017.98 1018.49 1018.59 1018.95 1019.61 1020.07 1020.43 1021.06 1021.41 1021.65 1021.73 1021.65 1021.91 1022.18 1022.15 1022.27 1022.47 1022.57 1022.79
1001.41 1002.10 1002.95 1003.73 1004.86 1005.54 1006.03 1006.83 1008.21 1009.15 1010.05 1010.84 1011.63 1011.71 1012.03 1012.60 1013.22 1013.78 1014.37 1014.89 1015.50 1016.11 1016.50 1017.09 1017.80 1018.16 1018.45 1018.95 1019.52 1019.90 1020.56 1021.18 1021.63 1021.75 1021.71 1021.85 1022.05 1022.20 1022.46 1022.71 1023.02 1023.12 1023.25
1000.95 1001.81 1002.76 1003.77 1004.75 1005.33 1005.65 1006.73 1007.55 1008.54 1009.26 1010.00 1010.80 1011.34 1011.67 1012.25 1012.71 1013.18 1013.82 1014.44 1015.06 1015.65 1016.34 1017.07 1017.49 1017.72 1018.17 1018.84 1019.25 1019.77 1020.50 1021.20 1021.64 1021.77 1021.82 1021.81 1022.07 1022.31 1022.56 1022.87 1023.13 1023.26 1023.24
1000.95 1001.50 1002.33 1003.17 1003.84 1004.78 1005.38 1006.62 1007.03 1007.45 1008.35 1009.23 1010.16 1010.94 1011.50 1011.73 1012.22 1012.85 1013.50 1014.16 1014.81 1015.50 1016.14 1016.76 1017.21 1017.42 1017.93 1018.62 1018.99 1019.46 1020.17 1020.64 1021.24 1021.46 1021.78 1021.74 1021.82 1022.22 1022.55 1022.83 1023.07 1022.98 1022.84
1001.33 1001.62 1002.10 1002.77 1003.51 1004.36 1004.84 1006.07 1006.25 1006.65 1007.81 1008.55 1009.53 1010.25 1010.95 1011.49 1012.01 1012.55 1013.30 1014.02 1014.63 1015.33 1015.98 1016.55 1017.02 1017.45 1017.88 1018.34 1018.69 1019.01 1019.48 1020.02 1020.54 1020.96 1021.24 1021.36 1021.54 1021.84 1022.29 1022.59 1022.71 1022.95 1022.82
1001.51 1001.76 1002.12 1002.74 1003.41 1003.74 1004.19 1004.94 1005.32 1006.32 1007.19 1008.15 1009.07 1009.71 1010.48 1011.17 1011.59 1012.17 1012.87 1013.74 1014.40 1015.02 1015.75 1016.25 1016.72 1017.15 1017.72 1018.23 1018.54 1018.88 1019.23 1019.63 1020.09 1020.38 1020.68 1020.96 1021.26 1021.67 1022.05 1022.24 1022.49 1022.80 1022.87
1001.63 1001.90 1002.45 1003.17 1003.55 1003.75 1004.02 1004.04 1005.05 1005.73 1006.75 1007.65 1008.41 1009.25 1009.97 1010.68 1011.35 1011.93 1012.44 1013.04 1013.73 1014.43 1015.06 1015.72 1016.21 1016.66 1017.36 1018.00 1018.46 1018.74 1019.17 1019.40 1019.72 1020.06 1020.47 1020.70 1020.99 1021.43 1021.74 1022.08 1022.20 1022.24 1022.38
1002.03 1002.01 1002.44 1002.85 1003.29 1003.69 1004.10 1004.65 1005.00 1005.49 1006.33 1007.17 1007.84 1008.68 1009.44 1010.17 1010.87 1011.37 1011.65 1012.07 1012.39 1012.93 1013.81 1014.45 1015.28 1016.13 1016.75 1016.84 1017.49 1018.09 1018.58 1018.88 1019.27 1019.90 1020.50 1020.66 1020.90 1021.19 1021.46 1021.67 1021.68 1021.74 1021.96
1002.76 1002.74 1002.81 1002.79 1003.05 1003.46 1003.76 1004.28 1004.78 1005.21 1005.96 1006.80 1007.43 1007.86 1008.67 1009.41 1010.01 1010.82 1011.40 1011.75 1012.01 1012.46 1012.94 1013.66 1014.32 1015.06 1015.62 1016.27 1016.80 1017.30 1017.79 1018.32 1018.86 1019.59 1019.65 1019.66 1019.90 1020.17 1020.40 1020.69 1020.88 1021.09 1021.19
Thickness
5801 5802 5799 5795 5790 5784 5778 5773 5769 5768 5766 5759 5756 5755 5754 5756 5756 5756 5754 5755 5754 5760 5765 5769 5772 5776 5777 5778 5779 5781 5780 5781 5781 5777 5774 5773 5772 5771 5770 5767 5764 5762 5758
5799 5799 5797 5795 5790 5786 5781 5775 5772 5768 5766 5762 5758 5757 5757 5757 5756 5755 5753 5752 5755 5759 5764 5768 5770 5774 5775 5778 5777 5778 5777 5779 5780 5775 5770 5764 5767 5767 5766 5765 5762 5760 5757
5799 5798 5795 5795 5792 5786 5784 5777 5773 5770 5768 5763 5758 5755 5755 5752 5751 5751 5752 5754 5755 5758 5762 5767 5769 5772 5773 5776 5776 5778 5778 5777 5779 5779 5772 5762 5759 5761 5761 5761 5760 5757 5754
5804 5800 5797 5796 5796 5792 5788 5781 5772 5768 5767 5763 5759 5756 5753 5752 5752 5751 5755 5754 5754 5756 5761 5767 5769 5771 5772 5775 5777 5779 5778 5778 5774 5778 5778 5776 5773 5760 5754 5757 5756 5755 5753
5807 5803 5801 5804 5802 5793 5789 5785 5776 5770 5767 5763 5762 5757 5753 5755 5755 5753 5754 5755 5756 5758 5762 5767 5769 5771 5772 5776 5777 5778 5778 5778 5778 5777 5777 5775 5772 5769 5761 5752 5750 5753 5750
5809 5807 5805 5805 5801 5797 5790 5784 5777 5770 5767 5764 5761 5759 5755 5754 5752 5751 5749 5753 5757 5760 5763 5765 5767 5771 5774 5777 5778 5779 5778 5779 5779 5779 5777 5775 5771 5768 5764 5758 5752 5748 5745
5811 5807 5804 5801 5799 5794 5790 5785 5776 5769 5768 5765 5763 5760 5757 5755 5753 5752 5751 5753 5757 5760 5765 5766 5767 5771 5775 5777 5778 5779 5778 5780 5778 5778 5777 5777 5776 5775 5769 5765 5756 5749 5748
5813 5812 5809 5805 5803 5796 5791 5787 5779 5773 5769 5766 5765 5762 5759 5757 5756 5754 5753 5754 5757 5761 5764 5767 5768 5771 5774 5777 5779 5780 5779 5780 5779 5778 5779 5777 5775 5776 5773 5769 5763 5751 5747
5814 5814 5811 5805 5803 5797 5792 5788 5781 5776 5773 5768 5764 5761 5758 5756 5756 5755 5755 5756 5759 5762 5763 5766 5768 5772 5774 5776 5778 5778 5779 5778 5778 5778 5778 5777 5776 5777 5775 5773 5770 5762 5745
5815 5813 5811 5806 5804 5800 5794 5787 5781 5778 5774 5768 5764 5761 5758 5756 5757 5755 5755 5757 5760 5761 5763 5764 5768 5771 5773 5774 5774 5774 5775 5775 5775 5777 5777 5776 5776 5775 5773 5773 5770 5766 5754
5820 5818 5815 5811 5803 5799 5793 5786 5780 5776 5771 5766 5762 5758 5755 5754 5755 5754 5755 5757 5759 5761 5761 5764 5766 5768 5771 5770 5771 5771 5772 5771 5772 5774 5775 5773 5773 5770 5770 5772 5769 5762 5756
5825 5824 5819 5811 5806 5800 5792 5786 5781 5777 5772 5766 5760 5756 5753 5752 5752 5753 5755 5757 5758 5760 5760 5761 5760 5765 5767 5767 5768 5769 5769 5769 5770 5771 5771 5768 5771 5770 5770 5769 5765 5759 5754
5824 5824 5817 5808 5805 5803 5799 5791 5782 5776 5772 5765 5758 5754 5752 5751 5752 5753 5755 5756 5757 5759 5758 5757 5758 5762 5765 5765 5765 5767 5766 5768 5768 5768 5768 5767 5767 5766 5766 5765 5760 5755 5750
5823 5818 5811 5808 5807 5804 5801 5791 5788 5779 5773 5763 5758 5753 5751 5752 5752 5754 5755 5756 5756 5757 5757 5756 5757 5759 5762 5763 5764 5764 5765 5765 5764 5765 5765 5765 5763 5763 5764 5760 5756 5751 5743
5819 5817 5809 5808 5805 5802 5797 5791 5789 5779 5772 5761 5756 5753 5753 5754 5753 5754 5755 5754 5754 5754 5754 5753 5754 5757 5759 5761 5761 5762 5762 5762 5762 5762 5762 5762 5761 5761 5759 5755 5751 5746 5738
5820 5819 5814 5808 5805 5803 5799 5793 5786 5776 5768 5760 5755 5754 5754 5754 5753 5754 5753 5751 5751 5750 5749 5749 5752 5755 5759 5759 5761 5760 5759 5759 5759 5759 5760 5758 5760 5760 5757 5753 5745 5742 5734
5823 5822 5819 5816 5809 5808 5805 5797 5786 5775 5765 5761 5756 5755 5756 5755 5754 5754 5751 5748 5748 5748 5746 5746 5745 5757 5756 5760 5760 5758 5758 5758 5756 5756 5756 5756 5756 5754 5751 5747 5743 5741 5734
5829 5825 5821 5819 5812 5812 5808 5803 5789 5776 5766 5762 5758 5759 5760 5758 5756 5753 5750 5745 5745 5746 5748 5747 5749 5752 5757 5759 5757 5757 5757 5755 5755 5755 5754 5755 5752 5749 5746 5742 5736 5732 5725
5835 5830 5827 5824 5818 5815 5813 5805 5791 5780 5773 5766 5759 5763 5763 5761 5759 5757 5753 5748 5744 5747 5751 5752 5751 5754 5758 5758 5757 5757 5755 5752 5751 5751 5751 5752 5749 5746 5742 5738 5731 5726 5720
5843 5832 5827 5821 5816 5816 5817 5805 5796 5787 5783 5774 5770 5769 5768 5765 5765 5765 5762 5759 5756 5756 5754 5753 5757 5760 5760 5758 5758 5758 5754 5752 5749 5749 5748 5749 5746 5743 5739 5735 5729 5722 5717
5840 5837 5829 5823 5820 5819 5817 5806 5804 5799 5794 5785 5778 5775 5773 5772 5771 5770 5767 5765 5763 5761 5759 5760 5761 5762 5761 5760 5760 5759 5756 5755 5750 5749 5747 5747 5745 5742 5738 5732 5726 5723 5718
5833 5833 5827 5824 5823 5820 5819 5808 5808 5810 5801 5795 5784 5781 5778 5776 5774 5773 5769 5766 5764 5761 5759 5760 5760 5762 5761 5760 5760 5760 5759 5757 5754 5751 5749 5748 5746 5742 5737 5731 5726 5719 5715
5828 5829 5826 5822 5821 5822 5823 5816 5817 5811 5804 5797 5787 5784 5781 5779 5777 5775 5772 5768 5766 5765 5762 5762 5763 5762 5760 5759 5759 5759 5758 5756 5754 5753 5751 5748 5745 5741 5736 5731 5724 5717 5713
5823 5824 5820 5814 5815 5820 5821 5824 5819 5817 5809 5798 5795 5789 5784 5780 5777 5776 5775 5772 5771 5769 5767 5764 5763 5764 5759 5758 5756 5757 5755 5755 5753 5751 5748 5746 5743 5739 5734 5727 5723 5718 5714
5817 5821 5818 5816 5814 5816 5816 5816 5815 5815 5808 5802 5797 5792 5787 5782 5779 5777 5779 5779 5780 5780 5774 5773 5769 5763 5760 5763 5761 5758 5756 5756 5754 5748 5743 5741 5739 5736 5731 5727 5723 5720 5715
5808 5809 5811 5814 5815 5814 5814 5812 5813 5813 5807 5799 5796 5794 5790 5786 5784 5779 5777 5777 5779 5778 5778 5776 5774 5770 5768 5764 5761 5759 5757 5754 5750 5746 5744 5744 5742 5738 5734 5729 5725 5721 5717